Home > Weather > Calw > Past weeks

Flag for Germany Past Weather in Calw, Baden-Württemberg, Germany — Yesterday and Last 2 Weeks

Now
50 °F

Passing clouds.


Feels Like: 50 °F
Forecast: 38 / 64 °F
Wind: 2 mph from North

Location: Stuttgart-Echterdingen

Current Time: May 25, 2016 at 1:36:51 AM

Latest Report: May 25, 2016 at 1:20 AM


Visibility: 5 mi

Pressure: 29.98 "Hg

Humidity: 94%

Dew Point: 48 °F

Location of CalwLocation

Past Weather in Calw — Graph

°F

Calw Temperature Yesterday

Maximum temperature yesterday: 52 °F (at 12:20 AM)
Minimum temperature yesterday: 50 °F (at 2:20 AM)
Average temperature yesterday: 51 °F

High & Low Weather Summary for the Past Weeks

 TemperatureHumidityPressure
High81 °F (May 22, 3:50 PM)100% (May 11, 2:20 AM)30.15 "Hg (May 11, 2:20 AM)
Low41 °F (May 15, 6:50 AM)34% (May 22, 1:50 PM)29.45 "Hg (May 12, 5:20 PM)
Average55 °F76%29.88 "Hg
* Reported May 10 12:20 AM — May 25 12:20 AM, Calw, Weather by CustomWeather, © 2016

Note: Actual official high and low records may vary slightly from our data, if they occured in-between our weather recording intervals... More about our weather records

Advertising

Calw Weather History for the Previous 24 Hours

Scroll right to see more
 ConditionsComfort  
Time TempWeatherWind HumidityBarometerVisibility
12:20 AM
Wed, May 25
50 °FPassing clouds.1 mph94%29.98 "Hg5 mi
11:50 PM
Tue, May 24
50 °FPassing clouds.2 mph94%29.98 "Hg5 mi
11:20 PM50 °FPassing clouds.3 mph94%29.98 "Hg4 mi
10:50 PM50 °FPartly cloudy.5 mph94%29.98 "HgN/A
10:20 PM50 °FPassing clouds.6 mph94%29.98 "HgN/A
9:50 PM50 °FPartly sunny.5 mph94%29.98 "HgN/A
9:20 PM50 °FPartly sunny.8 mph94%29.98 "HgN/A
8:50 PM50 °FPartly sunny.6 mph94%29.98 "HgN/A
8:20 PM50 °FBroken clouds.5 mph94%29.98 "HgN/A
7:50 PM50 °FBroken clouds.7 mph94%29.98 "HgN/A
7:20 PM52 °FBroken clouds.9 mph88%29.98 "HgN/A
6:50 PM52 °FPartly sunny.6 mph88%29.98 "HgN/A
6:20 PM52 °FBroken clouds.8 mph88%29.98 "HgN/A
5:50 PM52 °FBroken clouds.8 mph88%29.98 "HgN/A
5:20 PM52 °FBroken clouds.7 mph88%29.98 "HgN/A
4:50 PM52 °FBroken clouds.7 mph88%29.98 "HgN/A
4:20 PM52 °FLight rain. Broken clouds.10 mph88%29.98 "HgN/A
3:50 PM52 °FLight rain. Broken clouds.7 mph88%29.98 "HgN/A
3:20 PM52 °FLight rain. Broken clouds.8 mph88%29.98 "HgN/A
2:50 PM52 °FLight rain. Broken clouds.8 mph88%29.98 "HgN/A
2:20 PM52 °FLight rain. Broken clouds.10 mph88%29.98 "HgN/A
1:50 PM52 °FLight rain. Broken clouds.8 mph88%29.98 "HgN/A
1:20 PM50 °FLight rain. Broken clouds.7 mph94%29.98 "HgN/A
12:50 PM50 °FLight rain. Broken clouds.8 mph94%29.98 "HgN/A
12:20 PM50 °FLight rain. Broken clouds.10 mph94%29.98 "HgN/A
11:50 AM50 °FLight rain. Broken clouds.9 mph94%29.98 "HgN/A
11:20 AM50 °FRain. Broken clouds.10 mph94%29.98 "HgN/A
10:50 AM50 °FRain. Broken clouds.12 mph94%29.98 "HgN/A
10:20 AM50 °FRain. Broken clouds.10 mph94%29.98 "HgN/A
9:50 AM50 °FLight rain. Broken clouds.10 mph94%29.95 "HgN/A
9:20 AM50 °FLight rain. Broken clouds.9 mph94%29.95 "Hg5 mi
8:50 AM50 °FLight rain. Broken clouds.7 mph94%29.98 "HgN/A
8:20 AM50 °FLight rain. Broken clouds.9 mph94%29.95 "Hg6 mi
7:50 AM50 °FLight rain. Broken clouds.10 mph94%29.95 "Hg4 mi
7:20 AM50 °FLight rain. Broken clouds.8 mph94%29.95 "Hg4 mi
6:50 AM50 °FBroken clouds.9 mph94%29.95 "HgN/A
6:20 AM50 °FPassing clouds.5 mph88%29.95 "HgN/A
5:50 AM50 °FPassing clouds.6 mph88%29.95 "HgN/A
5:20 AM50 °FPartly cloudy.8 mph88%29.95 "HgN/A
4:50 AM50 °FPartly cloudy.9 mph88%29.95 "HgN/A
4:20 AM50 °FPartly cloudy.12 mph88%29.95 "HgN/A
3:50 AM50 °FPassing clouds.10 mph88%29.95 "HgN/A
3:20 AM50 °FPassing clouds.13 mph88%29.95 "HgN/A
2:50 AM50 °FPartly cloudy.10 mph94%29.92 "HgN/A
2:20 AM50 °FPassing clouds.12 mph94%29.95 "HgN/A
1:50 AM52 °FPassing clouds.12 mph88%29.95 "HgN/A
1:20 AM52 °FLight rain. Passing clouds.10 mph88%29.95 "HgN/A
Weather by CustomWeather, © 2016

See weather overviewHow to use our weather pages